Regional Weather Roundup
Issued by NWS

Home | Current Version | Previous Version | Text Only | Print | Product List | Glossary On
Versions: 1 2 3 4 5 6 7 8 9 10 11 12 13 14 15 16 17 18 19 20 21 22 23 24 25 26 27 28 29 30 31 32 33 34 35 36 37 38 39 40 41 42 43 44 45 46 47 48 49 50
621
ASUS43 KTOP 241259
RWRKS

WEATHER ROUNDUP FOR KANSAS
NATIONAL WEATHER SERVICE GOODLAND KS
800 AM CDT TUE MAY 24 2016

NOTE:  "FAIR" INDICATES FEW OR NO CLOUDS BELOW 12,000 FEET WITH NO
SIGNIFICANT WEATHER AND/OR OBSTRUCTIONS TO VISIBILITY.

KSZ001>006-013>018-027>032-041>047-241400-
NORTHWEST KANSAS

CITY           SKY/WX    TMP DP  RH WIND       PRES   REMARKS
GOODLAND       PTSUNNY   57  50  77 E13       29.91R
HAYS           CLOUDY    59  48  67 E13       29.92R
HILL CITY      CLOUDY    58  56  93 SE9       29.91R
RUSSELL        CLOUDY    58  56  93 E18       29.90R
$$

KSZ061>065-074>080-084>089-241400-
SOUTHWEST KANSAS

CITY           SKY/WX    TMP DP  RH WIND       PRES   REMARKS
DODGE CITY     CLOUDY    66  66 100 E8        29.90R FOG
ELKHART          N/A     62  60  93 S1          N/A
GARDEN CITY    CLOUDY    66  62  87 SE13      29.85S
GREAT BEND     CLOUDY    59  50  72 E21G29    29.92S
LIBERAL        CLOUDY    70  64  83 SW13      29.84R
$$

KSZ066>073-081>083-090>101-241400-
SOUTHEAST KANSAS

CITY           SKY/WX    TMP DP  RH WIND       PRES   REMARKS
CHANUTE        LGT RAIN  68  64  87 CALM      29.92R
COFFEYVILLE    CLOUDY    71  65  81 SE6       29.91R
HUTCHINSON     CLOUDY    63  59  87 N20G31    29.98R
MEDICINE LODGE   N/A     71  67  87 NE12      29.88R
NEWTON         CLOUDY    63  55  77 E6        29.99R
PARSONS        CLOUDY    71  66  84 S6        29.93R
WICHITA INTL   PTSUNNY   71  67  87 NE8       29.94R
WICHITA JABRA  CLOUDY    65  64  97 NE10      29.94R
WINFIELD       CLOUDY    69  67  93 NE10      29.94R
$$

KSZ007>012-019>026-033>040-048>060-102>105-241400-
NORTHEAST KANSAS

CITY           SKY/WX    TMP DP  RH WIND       PRES   REMARKS
CONCORDIA      LGT RAIN  60  58  92 S10       29.94R
EMPORIA        TSTM      61  59  93 S16       29.94R FOG
LAWRENCE       CLOUDY    63  62  97 S7        29.92R
MANHATTAN      LGT RAIN  62  59  90 VRB5      29.97R
OLATHE IND     CLOUDY    63  62  97 SE12      29.92S
OLATHE EXE     CLOUDY    62  61  96 S8        29.92F FOG
SALINA         TSTM      62  60  93 SE14      29.97F
TOPEKA BILLARD CLOUDY    62  60  93 S6        29.92R
TOPEKA FORBES  PTSUNNY   63  60  90 S8        29.93R
$$




USA.gov is the U.S. government's official web portal to all federal, state and local government web resources and services.